Regional Weather Roundup
Issued by NWS

Home | Current Version | Previous Version | Graphics & Text | Print | Product List | Glossary On
Versions: 1 2 3 4 5 6 7 8 9 10 11 12 13 14 15 16 17 18 19 20 21 22 23 24 25 26 27 28 29 30 31 32 33 34 35 36 37 38 39 40 41 42 43 44 45 46 47 48 49 50
000
ASUS43 KMKX 310911
RWRWI

WISCONSIN REGIONAL WEATHER ROUNDUP
NATIONAL WEATHER SERVICE MILWAUKEE/SULLIVAN WI
400 AM CDT THU JUL 31 2014

NOTE: "FAIR" INDICATES FEW OR NO CLOUDS BELOW 12,000 FEET WITH NO
SIGNIFICANT WEATHER AND/OR OBSTRUCTIONS TO VISIBILITY.

WIZ001-002-006>008-014>016-023>028-311000-
NORTHWEST WISCONSIN

CITY           SKY/WX    TMP DP  RH WIND       PRES   REMARKS
SUPERIOR ARPT  PTCLDY    57  56  95 CALM      29.98S
ASHLAND        CLEAR     56  55  97 SW3       29.97F
HAYWARD        FOG       55  55 100 CALM      29.99F VSB 1/2
SIREN          CLEAR     59  56  92 W3        30.01S
RICE LAKE        N/A     55  54  95 CALM      30.02F FOG
LADYSMITH      FOG       55  54  95 CALM      30.01S VSB 1/2
EAU CLAIRE     CLEAR     59  57  93 SW5       30.00S
MENOMONIE      SUNNY     62  57  83 W6        30.01F
NEW RICHMOND   CLEAR     56  55  96 CALM      30.03S
OSCEOLA        CLEAR     55  55 100 CALM      30.05S
$$

WIZ003>005-009-010-017-018-311000-
NORTH CENTRAL WISCONSIN

CITY           SKY/WX    TMP DP  RH WIND       PRES   REMARKS
WOODRUFF       HAZE      52  46  80 CALM      29.99S VSB 1/4
RHINELANDER    FOG       49  48  97 CALM      30.00S VSB 1/4
EAGLE RIVER    FOG       47  47 100 CALM      29.98F VSB 1/4
LAND O LAKES   FOG       45  45 100 CALM      29.99F VSB 1/4
PHILLIPS       CLEAR     54  54 100 CALM      29.99S
TOMAHAWK       FOG       47  47  97 CALM      30.00S VSB 1
MEDFORD        CLEAR     56  56  99 SW3       30.00S
MERRILL        FOG       51  51 100 CALM      29.99F VSB<1/4
$$

WIZ029-030-035-036-043>047-311000-
CENTRAL WISCONSIN

CITY           SKY/WX    TMP DP  RH WIND       PRES   REMARKS
WAUSAU         CLEAR     59  58  96 NW3       29.97F
MOSINEE        MOCLDY    55  55 100 W3        30.00S
MARSHFIELD     MOCLDY    59  57  93 W3        29.99S
STEVENS POINT  CLOUDY    59  57  93 CALM      30.00S
WAUPACA        MOCLDY    61  59  92 W3        29.98F
WAUTOMA        PTCLDY    59  58  96 CALM      30.00S
WISC RAPIDS    FOG       57  57 100 CALM      30.00F VSB 1/4
CAMP DOUGLAS   FOG       55  55 100 NW1       30.00F VSB 3/4
$$

WIZ011>013-019>022-031-037>040-048>050-311000-
NORTHEAST WISCONSIN

CITY           SKY/WX    TMP DP  RH WIND       PRES   REMARKS
ANTIGO         FOG       49  49 100 CALM      29.99S VSB 1/4
STURGEON BAY   CLEAR     57  55  94 W5        29.97S
GREEN BAY      CLEAR     56  55  97 CALM      29.97S FOG
MANITOWOC      CLEAR     60  57  89 W3        29.96F
APPLETON       PTCLDY    55  54  94 W10       29.98F
CLINTONVILLE   CLEAR     52  50  93 CALM      29.98S
OSHKOSH        PTCLDY    61  57  87 W5        29.98S
$$

WIZ032>034-041-042-053>061-311000-
SOUTHWEST WISCONSIN

CITY           SKY/WX    TMP DP  RH WIND       PRES   REMARKS
LA CROSSE      CLEAR     65  60  84 CALM      30.01S
SPARTA         CLEAR     54  53  97 CALM      30.02S
VIROQUA        FAIR      59  59 100 W6        30.03S
BOSCOBEL       CLEAR     60  57  89 SW3       30.03S FOG
PRAIRIE DU CHI CLEAR     58  56  91 CALM      30.03S
PLATTEVILLE    FAIR      61  59  94 W3        30.05S
$$

WIZ056-057-062-063-064-067-068-311000-
SOUTH CENTRAL WISCONSIN

CITY           SKY/WX    TMP DP  RH WIND       PRES   REMARKS
BARABOO/DELLS  CLEAR     57  54  88 CALM      30.00F
LONE ROCK      CLEAR     58  53  84 CALM      30.02S
WATERTOWN      PTCLDY    58  55  90 CALM      29.99F
MADISON        PTCLDY    64  56  75 CALM      30.00F
MIDDLETON      FAIR      59  57  92 W5        30.02S
MONROE         CLEAR     61  55  82 W14       30.03S
JANESVILLE     MOCLDY    59  54  82 CALM      30.01S
$$

WIZ051-052-058>065-066-070>072-311000-
SOUTHEAST WISCONSIN

CITY           SKY/WX    TMP DP  RH WIND       PRES   REMARKS
MILWAUKEE      PTCLDY    60  54  80 SW5       30.00S
WAUKESHA       PTCLDY    55  52  88 CALM      30.01F
MILWAUKEE/TIMM MOCLDY    59  52  77 SW5       30.00F
RACINE         PTCLDY    60  56  86 SW3       30.01F
BURLINGTON     CLEAR     53  52  98 SW3       30.01S
KENOSHA        PTCLDY    60  58  92 SW3       30.01S
FOND DU LAC    CLOUDY    60  56  86 CALM      29.99F
SHEBOYGAN      PTCLDY    55  54  96 SW5       29.97F
WEST BEND      CLOUDY    61  54  77 CALM      29.99F
JUNEAU         CLOUDY    59  54  83 CALM      30.00F
$$

LSZ147-162-311000-
LAKE SUPERIOR

STATION/POSITION TIME  TEMP    WIND        PRES    WAVE
                       AIR SEA DIR/SP/G            HT/PER
                 (UTC) (F)     (DEG/KT/KT) (MB)    (FT/S)
W MID LAKE BUOY  0850   49 41  260/  6/  8 1013.9R   1
PORT WING        0800   58     150/  1/  3 1015.2S
SAXON HARBOR     0800          180/  3/  6 1014.6S
$$

LMZ867-665-643>646-311000-
LAKE MICHIGAN

STATION/POSITION TIME  TEMP    WIND        PRES    WAVE
                       AIR SEA DIR/SP/G            HT/PER
                 (UTC) (F)     (DEG/KT/KT) (MB)    (FT/S)
N MID LAKE BUOY  0850   56 54  250/  4/  4 1013.5S   1
NORTHPORT PIER   0800   60     290/  4/  7 1014.2S
SISTER BAY       0710   61     360/  8/  9   N/A
ALGOMA LAKESHORE 0851          330/  6/  8   N/A
KEWAUNEE LAKESHO 0800   56     290/  4/  5 1014.0F
SHEBOYGAN LAKESH 0900   61     200/  4/  5 1014.9S
PORT WASHINGTON  0800   61      CALM  /  3 1015.6F
ATWATER BUOY     0900   63     220/  8     1016.5S
MILWAUKEE LAKESH 0800   64     220/  6/  7   N/A
S MID LAKE BUOY  0850   62 60  230/ 12/ 14 1015.5F   1/ 2
KENOSHA   LAKESH 0900   63     240/  7/  8 1015.9S
$$

TC  - TEMPERATURE IN CELSIUS
VSB - VISIBILITY IN STATUTE MILES
WCI - WIND CHILL INDEX
HX  - HEAT INDEX



USA.gov is the U.S. government's official web portal to all federal, state and local government web resources and services.